Change the Weather History Date:

Saturday, May 26, 2012

  Actual Average Record
Temperature  
Mean Temperature 82 °F 76 °F  
Max Temperature 95 °F 87 °F 96 °F (1962)
Min Temperature 68 °F 66 °F 48 °F (1979)
Cooling Degree Days 17 12  
Month to date cooling degree days 274 226  
Year to date cooling degree days 617 385  
Growing Degree Days 32 (Base 50)    
Moisture  
Dew Point 64 °F    
Average Humidity 58    
Maximum Humidity 84    
Minimum Humidity 31    
Precipitation  
Precipitation 0.00 in 0.16 in 3.28 in (1991)
Month to date precipitation 7.74 4.25  
Year to date precipitation 26.43 25.95  
Sea Level Pressure  
Sea Level Pressure 30.07 in    
Wind  
Wind Speed 3 mph (NNE)    
Max Wind Speed 12 mph    
Max Gust Speed 16 mph    
Visibility 10 miles    
Events      
T = Trace of Precipitation, MM = Missing Value Source: NWS Daily Summary

Daily Weather History Graph

Daily Weather History Graph

Search for Another Location

Airport or City:

Trip Planner

Search our weather history database for the weather conditions in past years. The results will help you decide how hot, cold, wet, or windy it might be!

Date:

Astronomy

May. 26, 2012 Rise Set
Actual Time 5:52 AM CDT 7:48 PM CDT
Civil Twilight 5:25 AM CDT 8:15 PM CDT
Nautical Twilight 4:52 AM CDT 8:47 PM CDT
Astronomical Twilight 4:17 AM CDT 9:22 PM CDT
Moon 10:44 AM CDT (5/26) No Moon Set
Length of Visible Light 14h 49m
Length of Day
13h 55m
Waxing Crescent, 28% of the Moon is Illuminated
May 26
Waxing Crescent
May 28
First Quarter
Jun 4
Full
Jun 11
Last Quarter
Jun 19
New

Hourly Weather History & Observations

Time (CDT) Temp. Heat Index Dew Point Humidity Pressure Visibility Wind Dir Wind Speed Gust Speed Precip Events Conditions
12:56 AM 71.1 °F - 64.9 °F 81% 30.06 in 10.0 mi WNW 3.5 mph - N/A   Partly Cloudy
1:56 AM 71.1 °F - 64.9 °F 81% 30.06 in 10.0 mi Calm Calm - N/A   Partly Cloudy
2:56 AM 69.1 °F - 63.0 °F 81% 30.06 in 10.0 mi Calm Calm - N/A   Partly Cloudy
3:56 AM 71.1 °F - 62.1 °F 73% 30.06 in 10.0 mi Calm Calm - N/A   Partly Cloudy
4:56 AM 68.0 °F - 62.6 °F 83% 30.08 in 10.0 mi Calm Calm - N/A   Partly Cloudy
5:56 AM 69.1 °F - 62.1 °F 78% 30.09 in 10.0 mi Calm Calm - N/A   Scattered Clouds
6:56 AM 72.0 °F - 64.0 °F 76% 30.11 in 10.0 mi North 3.5 mph - N/A   Scattered Clouds
7:56 AM 77.0 °F - 64.0 °F 64% 30.13 in 10.0 mi NNE 9.2 mph - N/A   Scattered Clouds
8:56 AM 82.0 °F 83.4 °F 64.0 °F 54% 30.14 in 10.0 mi NNE 10.4 mph - N/A   Scattered Clouds
9:56 AM 84.9 °F 87.1 °F 66.0 °F 53% 30.13 in 10.0 mi ENE 6.9 mph - N/A   Mostly Cloudy
10:56 AM 89.1 °F 91.0 °F 64.9 °F 45% 30.12 in 10.0 mi NE 8.1 mph - N/A   Scattered Clouds
11:56 AM 91.0 °F 93.0 °F 64.9 °F 42% 30.10 in 10.0 mi Variable 6.9 mph - N/A   Mostly Cloudy
12:56 PM 93.0 °F 94.6 °F 64.0 °F 38% 30.09 in 10.0 mi NE 5.8 mph - N/A   Scattered Clouds
1:56 PM 93.0 °F 93.8 °F 62.1 °F 36% 30.08 in 10.0 mi South 3.5 mph - N/A   Scattered Clouds
2:56 PM 95.0 °F 95.2 °F 61.0 °F 32% 30.06 in 10.0 mi Calm Calm - N/A   Scattered Clouds
3:56 PM 95.0 °F 95.2 °F 61.0 °F 32% 30.04 in 10.0 mi NNE 5.8 mph - N/A   Partly Cloudy
4:56 PM 93.0 °F 93.0 °F 61.0 °F 34% 30.02 in 10.0 mi NE 5.8 mph - N/A   Scattered Clouds
5:56 PM 91.9 °F 92.9 °F 63.0 °F 38% 30.01 in 10.0 mi North 5.8 mph - N/A   Mostly Cloudy
6:56 PM 90.0 °F 91.3 °F 64.0 °F 42% 30.01 in 10.0 mi North 3.5 mph - N/A   Mostly Cloudy
7:56 PM 87.1 °F 88.9 °F 64.9 °F 48% 30.02 in 10.0 mi NNE 3.5 mph - N/A   Scattered Clouds
8:56 PM 82.0 °F 84.1 °F 66.0 °F 58% 30.02 in 10.0 mi Calm Calm - N/A   Partly Cloudy
9:56 PM 77.0 °F - 66.9 °F 71% 30.03 in 10.0 mi Calm Calm - N/A   Partly Cloudy
10:56 PM 75.9 °F - 66.9 °F 74% 30.02 in 10.0 mi Calm Calm - N/A   Partly Cloudy
11:56 PM 73.0 °F - 68.0 °F 84% 30.02 in 10.0 mi Calm Calm - N/A   Partly Cloudy